Regional Weather Roundup
Issued by NWS

Home | Current Version | Previous Version | Text Only | Print | Product List | Glossary Off
Versions: 1 2 3 4 5 6 7 8 9 10 11 12 13 14 15 16 17 18 19 20 21 22 23 24 25 26 27 28 29 30 31 32 33 34 35 36 37 38 39 40 41 42 43 44 45 46 47 48 49 50

000
ASUS45 KSLC 211010
RWRUT

UTAH REGIONAL WEATHER ROUNDUP
NATIONAL WEATHER SERVICE SALT LAKE CITY UT
300 AM MST SUN DEC 21 2014

UTZ001>011-023>025-211100-

NORTHERN UTAH

CITY           SKY/WX    TMP DP  RH WIND       PRES   REMARKS
BRIGHAM CITY   CLOUDY    41  35  76 S13       29.99F
HILL AFB       MIX PCPN  38  36  91 S8        30.01R WCI  32
LOGAN          LGT RAIN  40  35  83 S16       29.95R WCI  31
OGDEN          LGT RAIN  39  36  89 S7        30.00R WCI  34
PROVO AIRPORT  CLOUDY    36  34  93 CALM      30.04F
SALT LAKE CITY LGT RAIN  43  33  68 S10       30.01S
VERNAL         CLOUDY    29  27  92 CALM      30.00F
WENDOVER       CLOUDY    36  30  80 E8        29.99S WCI  29
HEBER CITY     CLOUDY    34  32  93 CALM      29.99F
WEST JORDAN    CLOUDY    39  36  87 S18       30.01F WCI  30

$$

UTZ012>022-026-027-211100-

SOUTHERN/CENTRAL UTAH

CITY           SKY/WX    TMP DP  RH WIND       PRES   REMARKS
BLANDING       PTCLDY    26  26  99 CALM      30.18S
BRYCE CANYON   PTCLDY    31  24  75 NW16      30.11S WCI  20
CEDAR CITY     MOCLDY    31  25  78 S7        30.13R WCI  24
DELTA          CLOUDY    34  30  85 S13       30.07F WCI  25
MILFORD        CLOUDY    35  29  78 SW16      30.10R WCI  25
MOAB/CYNLANDS  CLOUDY    34  33  96 W3        30.09F
PRICE          CLOUDY    30  27  88 CALM      30.07F
ST GEORGE      CLOUDY    36  30  80 CALM      30.18S
KANAB          PTCLDY    28  28 100 CALM      30.18F

$$

REGIONAL REPORTS     COLORADO/ARIZONA

CITY           SKY/WX    TMP DP  RH WIND       PRES   REMARKS
CRAIG, CO      MOCLDY    20  19  96 CALM      29.99F
GRAND JUNCTION CLOUDY    32  31  96 E5        30.08F WCI  27
RIFLE          CLOUDY    30  28  92 SE5       30.08F WCI  25
MONTROSE       CLOUDY    31  28  89 SE5       30.12F WCI  26
CORTEZ         CLEAR     25  23  92 E3        30.11S
PAGE, AZ       PTCLDY    35  28  75 SW5       30.13F WCI  31
GRAND CANYON   PTCLDY    23  21  92 CALM      30.17R
KINGMAN        CLEAR     33  30  88 CALM      30.16S
FLAGSTAFF      CLEAR     27  22  81 SW8       30.14F WCI  19

$$

REGIONAL REPORTS    NEVADA/IDAHO/WYOMING

CITY           SKY/WX    TMP DP  RH WIND       PRES   REMARKS
LAS VEGAS, NV  PTCLDY    44  36  73 S8        30.12S
ELY            CLOUDY    33  33 100 NW5       30.13F WCI  29
ELKO           CLOUDY    38  36  92 SW6       30.06R WCI  33
POCATELLO, ID  LGT RAIN  38  36  92 S17       29.89F WCI  28
BURLEY         LGT RAIN  40  36  86 SW18G26   29.89S WCI  31
EVANSTON, WY   CLOUDY    32  29  88 SW21G32   29.92F WCI  20
ROCK SPRINGS   CLOUDY    31  25  78 S18G26    29.87F WCI  19
KEMMERER       FLURRIES  32  30  93 SW22      29.88R WCI  19

$$



USA.gov is the U.S. government's official web portal to all federal, state and local government web resources and services.